Home   Weather   Tabriz   Past weeks
Flag for Iran

Past Weather in Tabriz, Iran — Yesterday and Last 2 Weeks

Now
63 °F

Clear.


Feels Like: 63 °F
Forecast: 83 / 59 °F
Wind: 5 mph from Northeast

Location: Tabriz Airport

Current Time: Sep 17, 2019 at 5:09:23 am

Latest Report: Sep 17, 2019 at 4:30 am


Visibility: 10 mi

Pressure: 30.07 "Hg (25.54 "Hg at 1388m altitude)

Humidity: 45%

Dew Point: 41 °F

Location of TabrizLocation

Past Weather in Tabriz — Graph

°F

Tabriz Temperature Yesterday

Maximum temperature yesterday: 90 °F (at 4:00 pm)
Minimum temperature yesterday: 66 °F (at 12:30 am)
Average temperature yesterday: 77 °F

High & Low Weather Summary for the Past Weeks

 TemperatureHumidityPressure
High90 °F (Sep 16, 4:00 pm)68% (Sep 3, 7:00 am)30.24 "Hg (Sep 3, 7:00 am)
Low54 °F (Sep 13, 5:00 am)11% (Sep 16, 5:30 pm)29.83 "Hg (Sep 7, 5:30 pm)
Average69 °F45%30.06 "Hg
* Reported Sep 2 3:30 am — Sep 17 3:30 am, Tabriz. Weather by CustomWeather, © 2019

Note: Actual official high and low records may vary slightly from our data, if they occured in-between our weather recording intervals... More about our weather records

Advertising

Tabriz Weather History for the Previous 24 Hours

Scroll right to see more
 ConditionsComfort  
Time TempWeatherWind HumidityBarometerVisibility
3:30 am
Tue, Sep 17
64 °FClear.7 mph43%30.09 "Hg10 mi
3:00 am64 °FClear.5 mph43%30.09 "Hg10 mi
2:30 am64 °FClear.5 mph40%30.09 "Hg10 mi
2:00 am64 °FClear.5 mph37%30.09 "Hg10 mi
1:30 am64 °FClear.5 mph37%30.09 "Hg10 mi
1:00 am66 °FClear.7 mph35%30.09 "Hg10 mi
12:30 am66 °FClear.7 mph35%30.09 "Hg10 mi
12:00 am68 °FClear.7 mph28%30.09 "Hg10 mi
11:30 pm
Mon, Sep 16
68 °FClear.7 mph28%30.09 "Hg10 mi
11:00 pm77 °FClear.12 mph19%30.07 "Hg10 mi
10:30 pm77 °FClear.12 mph19%30.07 "Hg10 mi
10:00 pm77 °FClear.12 mph19%30.07 "Hg10 mi
9:30 pm77 °FClear.12 mph19%30.07 "Hg10 mi
9:00 pm79 °FClear.9 mph15%30.04 "Hg10 mi
8:30 pm79 °FClear.9 mph15%30.04 "Hg10 mi
8:00 pm82 °FSunny.16 mph11%30.04 "Hg10 mi
7:30 pm82 °FSunny.16 mph11%30.04 "Hg10 mi
7:00 pm86 °FSunny.14 mph11%30.04 "Hg10 mi
6:30 pm86 °FSunny.14 mph11%30.04 "Hg10 mi
6:00 pm88 °FPassing clouds.14 mph12%30.01 "HgN/A
5:30 pm90 °FPassing clouds.16 mph11%30.01 "HgN/A
5:00 pm88 °FPassing clouds.16 mph16%30.01 "HgN/A
4:30 pm88 °FPassing clouds.16 mph16%30.04 "HgN/A
4:00 pm90 °FPassing clouds.14 mph18%30.04 "HgN/A
3:30 pm88 °FPassing clouds.7 mph19%30.04 "HgN/A
3:00 pm86 °FPassing clouds.7 mph22%30.07 "HgN/A
2:30 pm86 °FPassing clouds.2 mph22%30.07 "HgN/A
2:00 pm86 °FPassing clouds.5 mph22%30.07 "HgN/A
1:30 pm86 °FPassing clouds.5 mph24%30.09 "HgN/A
1:00 pm84 °FPassing clouds.2 mph25%30.09 "HgN/A
12:30 pm82 °FPassing clouds.7 mph25%30.12 "HgN/A
12:00 pm82 °FPassing clouds.12 mph28%30.12 "HgN/A
11:30 am81 °FSunny.14 mph30%30.12 "Hg10 mi
11:00 am77 °FSunny.12 mph34%30.12 "Hg10 mi
10:30 am75 °FSunny.12 mph36%30.12 "Hg10 mi
10:00 am73 °FSunny.14 mph38%30.12 "Hg10 mi
9:30 am72 °FPassing clouds.18 mph44%30.12 "HgN/A
9:00 am70 °FPassing clouds.16 mph43%30.12 "HgN/A
8:30 am68 °FPassing clouds.12 mph49%30.15 "HgN/A
8:00 am68 °FPassing clouds.18 mph49%30.12 "HgN/A
7:30 am68 °FPassing clouds.14 mph46%30.12 "HgN/A
7:00 am68 °FPassing clouds.16 mph46%30.12 "HgN/A
6:30 am68 °FPassing clouds.18 mph46%30.12 "HgN/A
5:30 am70 °FPassing clouds.9 mph43%30.09 "HgN/A
5:00 am70 °FPassing clouds.14 mph46%30.12 "HgN/A
Weather by CustomWeather, © 2019

See weather overview